Location: Newark
(46.6281°N, 5.7514°E)
Time: 12:12:14
(UTC+00:00)

ISS - Visible Passes

Search period start: 21 October 2019 00:00
Search period end: 31 October 2019 00:00
Orbit: 411 x 421 km, 51.6° (Epoch: 21 October)

Date Brightness Start Highest point End Pass type
(mag) Time Alt. Az. Time Alt. Az. Time Alt. Az.
24 Oct -0.7 04:49:08 10° SSE 04:50:51 13° SE 04:52:36 10° ESE visible
25 Oct -2.8 05:35:18 10° SW 05:38:34 49° SE 05:41:50 10° ENE visible
26 Oct -2.0 04:47:02 10° SSW 04:50:03 31° SE 04:53:04 10° ENE visible
27 Oct -1.5 04:00:46 18° SSE 04:01:35 20° SE 04:04:07 10° E visible
27 Oct -3.8 05:34:37 10° WSW 05:38:00 78° NNW 05:41:22 10° ENE visible
28 Oct -0.3 03:14:37 10° ESE 03:14:37 10° ESE 03:14:39 10° ESE visible
28 Oct -3.6 04:47:33 25° SW 04:49:22 72° SSE 04:52:44 10° ENE visible
29 Oct -2.6 04:01:15 42° ESE 04:01:15 42° ESE 04:04:02 10° ENE visible
29 Oct -3.2 05:34:17 10° W 05:37:33 45° NNW 05:40:49 10° ENE visible
30 Oct -0.3 03:14:50 12° E 03:14:50 12° E 03:15:12 10° E visible
30 Oct -3.6 04:47:43 37° W 04:48:49 59° NNW 04:52:10 10° ENE visible
